Weather History for LDZA - January, 2013

Change the Weather History Date:

Friday, January 25, 2013

  Actual Average Record
Temperature  
Mean Temperature 26 °F -  
Max Temperature 33 °F - - ()
Min Temperature 19 °F - - ()
Degree Days  
Heating Degree Days 39    
Moisture  
Dew Point 25 °F    
Average Humidity 81    
Maximum Humidity 100    
Minimum Humidity 58    
Precipitation  
Precipitation 0.00 in - - ()
Sea Level Pressure  
Sea Level Pressure 29.88 in    
Wind  
Wind Speed 12 mph ()    
Max Wind Speed 18 mph    
Max Gust Speed -    
Visibility 4.2 miles    
Events Snow    
T = Trace of Precipitation, MM = Missing Value Source: Averaged Metar Reports

Daily Weather History Graph

Daily Weather History Graph

Search for Another Location

Airport or City:

Trip Planner

Search our weather history database for the weather conditions in past years. The results will help you decide how hot, cold, wet, or windy it might be!

Date:

Astronomy

Jan. 25, 2013 Rise Set
Actual Time 7:25 AM CET 4:51 PM CET
Civil Twilight 6:52 AM CET 5:24 PM CET
Nautical Twilight 6:16 AM CET 6:00 PM CET
Astronomical Twilight 5:41 AM CET 6:35 PM CET
Moon 3:32 PM CET (1/25) 5:53 AM CET (1/25)
Length of Visible Light 10h 31m
Length of Day
9h 26m
Waxing Gibbous, 97% of the Moon is Illuminated
Jan 25
Waxing Gibbous
Jan 27
Full
Feb 3
Last Quarter
Feb 10
New
Feb 17
First Quarter

Hourly Weather History & Observations

Time (CET) Temp. Windchill Dew Point Humidity Pressure Visibility Wind Dir Wind Speed Gust Speed Precip Events Conditions
12:00 AM 32.0 °F 20.8 °F 32.0 °F 100% 29.71 in 1.6 mi NNE 17.3 mph - N/A Snow Snow
12:30 AM 32.0 °F 20.8 °F 32.0 °F 100% 29.71 in 3.1 mi NNE 17.3 mph - N/A Snow Light Snow
1:00 AM 32 °F - 31 °F 93% 29.75 in 2 mi NNE 17.9 mph - - Snow Light Snow
1:00 AM 32.0 °F 20.8 °F 30.2 °F 93% 29.71 in 2.5 mi NNE 17.3 mph - N/A Snow Light Snow
1:30 AM 32.0 °F 21.2 °F 30.2 °F 93% 29.74 in 3.1 mi NNE 16.1 mph - N/A Snow Light Snow
2:00 AM 32.0 °F 21.6 °F 30.2 °F 93% 29.74 in 2.5 mi NNE 15.0 mph - N/A Snow Light Snow
2:30 AM 32.0 °F 22.5 °F 30.2 °F 93% 29.77 in 2.5 mi NNE 12.7 mph - N/A Snow Light Snow
3:00 AM 30.2 °F 21.3 °F 30.2 °F 100% 29.77 in 1.9 mi NE 10.4 mph - N/A Snow Light Snow
3:30 AM 32.0 °F 20.8 °F 30.2 °F 93% 29.77 in 3.1 mi NE 17.3 mph - N/A Snow Light Snow
4:00 AM 31 °F - 29 °F 91% 29.81 in 3 mi NE 15.7 mph - - Snow Light Snow
4:00 AM 30.2 °F 19.3 °F 30.2 °F 100% 29.77 in 3.1 mi NE 15.0 mph - N/A Snow Light Snow
4:30 AM 30.2 °F 21.3 °F 30.2 °F 100% 29.77 in 2.5 mi NE 10.4 mph - N/A Snow Light Snow
5:00 AM 30.2 °F 20.8 °F 28.4 °F 93% 29.80 in 2.5 mi NE 11.5 mph - N/A Snow Light Snow
5:30 AM 30.2 °F 18.1 °F 28.4 °F 93% 29.80 in 3.1 mi NNE 18.4 mph - N/A Snow Light Snow
6:00 AM 30.2 °F 18.9 °F 28.4 °F 93% 29.80 in - NE 16.1 mph - N/A   Clear
6:30 AM 30.2 °F 20.2 °F 26.6 °F 86% 29.83 in - NE 12.7 mph - N/A   Clear
7:00 AM 31 °F - 27 °F 81% 29.86 in 9 mi ENE 8.9 mph - -   Partly Cloudy
7:00 AM 30.2 °F 21.3 °F 26.6 °F 86% 29.83 in - ENE 10.4 mph - N/A   Clear
7:30 AM 30.2 °F 19.8 °F 26.6 °F 86% 29.86 in 3.7 mi NE 13.8 mph - N/A   Unknown
8:00 AM 30.2 °F 19.3 °F 26.6 °F 86% 29.86 in 4.3 mi NE 15.0 mph - N/A   Unknown
8:30 AM 30.2 °F 22.6 °F 26.6 °F 86% 29.86 in 4.3 mi NE 8.1 mph - N/A   Unknown
9:00 AM 30.2 °F 20.8 °F 26.6 °F 86% 29.86 in 4.3 mi NE 11.5 mph - N/A   Unknown
9:30 AM 30.2 °F 21.3 °F 26.6 °F 86% 29.86 in 4.3 mi NE 10.4 mph - N/A   Unknown
10:00 AM 32 °F - 26 °F 71% 29.91 in 4 mi NE 13.4 mph - -   Mist
10:00 AM 32.0 °F 22.1 °F 26.6 °F 80% 29.89 in 4.3 mi NE 13.8 mph - N/A   Unknown
10:30 AM 32.0 °F 22.1 °F 24.8 °F 75% 29.89 in 4.3 mi NE 13.8 mph - N/A   Unknown
11:00 AM 32.0 °F 22.1 °F 24.8 °F 75% 29.89 in 4.3 mi NE 13.8 mph - N/A   Unknown
11:30 AM 32.0 °F 21.2 °F 24.8 °F 75% 29.92 in 4.3 mi NE 16.1 mph - N/A   Unknown
12:00 PM 32.0 °F 20.8 °F 24.8 °F 75% 29.92 in 4.3 mi NNE 17.3 mph - N/A   Unknown
12:30 PM 32.0 °F 20.5 °F 24.8 °F 75% 29.89 in 4.3 mi NE 18.4 mph - N/A   Unknown
1:00 PM 33 °F - 25 °F 64% 29.92 in 4 mi NE 15.7 mph - -   Mist
1:00 PM 32.0 °F 21.6 °F 24.8 °F 75% 29.89 in 4.3 mi NE 15.0 mph - N/A   Unknown
1:30 PM 33.8 °F 24.8 °F 24.8 °F 70% 29.89 in 4.3 mi NE 12.7 mph - N/A   Unknown
2:00 PM 32.0 °F 22.1 °F 24.8 °F 75% 29.89 in 4.3 mi NE 13.8 mph - N/A   Unknown
2:30 PM 32.0 °F 23.6 °F 24.8 °F 75% 29.89 in 4.3 mi NE 10.4 mph - N/A   Unknown
3:00 PM 32.0 °F 24.2 °F 23.0 °F 69% 29.89 in 4.3 mi NE 9.2 mph - N/A   Unknown
3:30 PM 32.0 °F 25.6 °F 23.0 °F 69% 29.89 in 5.0 mi East 6.9 mph - N/A   Unknown
4:00 PM 32 °F - 23 °F 58% 29.94 in 5 mi ENE 6.7 mph - -   Mist
4:00 PM 32.0 °F 25.6 °F 23.0 °F 69% 29.92 in 5.0 mi ENE 6.9 mph - N/A   Unknown
4:30 PM 30.2 °F 23.4 °F 23.0 °F 75% 29.92 in 5.0 mi NE 6.9 mph - N/A   Unknown
5:00 PM 28.4 °F 20.4 °F 21.2 °F 74% 29.95 in 5.0 mi NNE 8.1 mph - N/A   Unknown
5:30 PM 28.4 °F 17.5 °F 21.2 °F 74% 29.95 in 5.0 mi NNE 13.8 mph - N/A   Unknown
6:00 PM 28.4 °F 19.1 °F 21.2 °F 74% 29.95 in 5.0 mi NNE 10.4 mph - N/A   Unknown
6:30 PM 26.6 °F 17.5 °F 19.4 °F 74% 29.98 in 5.0 mi NNE 9.2 mph - N/A   Unknown
7:00 PM 26 °F - 19 °F 66% 30.01 in 5 mi NNE 8.9 mph - -   Mist
7:00 PM 26.6 °F 17.5 °F 19.4 °F 74% 29.98 in 5.0 mi NNE 9.2 mph - N/A   Unknown
7:30 PM 24.8 °F 16.1 °F 19.4 °F 80% 29.98 in 5.0 mi NE 8.1 mph - N/A   Unknown
8:00 PM 24.8 °F 16.9 °F 17.6 °F 74% 29.98 in 5.0 mi NNE 6.9 mph - N/A   Unknown
8:30 PM 23.0 °F 14.7 °F 17.6 °F 80% 29.98 in 5.0 mi NNE 6.9 mph - N/A   Unknown
9:00 PM 23.0 °F 13.1 °F 17.6 °F 80% 29.98 in 5.0 mi NNE 9.2 mph - N/A   Unknown
9:30 PM 23.0 °F 14.7 °F 17.6 °F 80% 30.01 in 5.0 mi NE 6.9 mph - N/A   Unknown
10:00 PM 23 °F - 17 °F 71% 30.04 in 5 mi ENE 4.5 mph - -   Mist
10:00 PM 23.0 °F 17.0 °F 17.6 °F 80% 30.01 in 5.0 mi ENE 4.6 mph - N/A   Unknown
10:30 PM 23.0 °F 18.4 °F 17.6 °F 80% 30.01 in 5.0 mi NE 3.5 mph - N/A   Unknown
11:00 PM 19.4 °F 12.8 °F 15.8 °F 86% 30.01 in 5.0 mi North 4.6 mph - N/A   Unknown
11:30 PM 21.2 °F 12.6 °F 15.8 °F 80% 30.01 in 5.0 mi NNE 6.9 mph - N/A   Unknown